CW4674 Karlstad SE current weather conditions

sailwx.info

Wind from 031 at 1 knots gusting 5

Air temperature 25.6° C
Dewpoint 17.5° C

Last reported at 2020-Aug-09 16:03 UTC.
Time now 2020-Aug-09 17:09 UTC

Location: N 59°24' E 013°36'.
View on Google Maps.

See reports from other nearby stations

  
Tides and Currents Weather Stations Pressure Air Temp Water Temp Dewpoint Dewpoint Depression Visibility Wind Speed Wind Dir Waves Ship Positions
date/time (UTC)wind fromknots sea level pressurealtimeterstation pressurevisibilityair tempwater tempwave heightnotes
2020-Aug-09 16:03 031 1 gusting 5 25.6
2020-Aug-09 15:54 046 0 gusting 7 25.6
2020-Aug-09 15:27 040 2 gusting 6 26.1
2020-Aug-09 15:18 044 26.1
2020-Aug-09 15:03 028 26.1
2020-Aug-09 14:54 053 1 gusting 7 26.1
2020-Aug-09 14:36 018 1 gusting 5 26.1
2020-Aug-09 14:18 033 26.1
2020-Aug-09 14:03 038 3 gusting 5 26.1
2020-Aug-09 13:45 015 26.1
2020-Aug-09 13:36 026 1 gusting 3 26.1
2020-Aug-09 13:18 027 25.6
2020-Aug-09 13:03 033 25.6
2020-Aug-09 12:45 028 26.1
2020-Aug-09 12:36 301 25.6
2020-Aug-09 12:18 226 25.6
2020-Aug-09 11:54 035 0 gusting 2 25.0
2020-Aug-09 11:45 348 25.0
2020-Aug-09 11:27 029 25.0
2020-Aug-09 11:03 003 25.0
2020-Aug-09 10:54 026 24.4
2020-Aug-09 10:45 044 1 gusting 4 25.0
2020-Aug-09 10:27 029 24.4
2020-Aug-09 10:18 053 0 gusting 3 24.4
2020-Aug-09 09:54 043 24.4
2020-Aug-09 09:45 039 1 gusting 3 23.9
2020-Aug-09 09:36 035 0 gusting 2 23.9
2020-Aug-09 09:27 047 23.9
2020-Aug-09 09:03 041 23.3
2020-Aug-09 08:54 024 23.3
2020-Aug-09 08:45 036 2 gusting 6 23.3
2020-Aug-09 08:02 022 0 gusting 2 22.2
2020-Aug-09 07:53 045 2 gusting 4 22.2
2020-Aug-09 07:45 038 3 gusting 5 21.7
2020-Aug-09 06:53 030 1 gusting 2 20.0
2020-Aug-09 05:44 203 17.2
2020-Aug-09 05:35 207 16.7
2020-Aug-09 05:26 16.7
2020-Aug-09 05:02 16.1
2020-Aug-09 04:53 15.6
2020-Aug-09 04:26 15.6
2020-Aug-09 04:02 15.0
2020-Aug-09 03:35 15.0
2020-Aug-09 03:26 15.0
2020-Aug-09 02:53 15.6
2020-Aug-09 02:44 15.6
2020-Aug-09 02:17 15.6
2020-Aug-09 01:35 16.1
2020-Aug-09 01:26 16.7
2020-Aug-09 00:53 16.7
2020-Aug-09 00:35 16.7
2020-Aug-09 00:26 16.7
2020-Aug-09 00:17 17.2
2020-Aug-09 00:02 17.2
2020-Aug-08 23:53 17.2
2020-Aug-08 23:44 17.2
2020-Aug-08 23:35 17.8
2020-Aug-08 23:26 17.8
2020-Aug-08 23:02 17.8
2020-Aug-08 22:44 18.3
2020-Aug-08 22:26 18.9
2020-Aug-08 22:02 19.4
2020-Aug-08 21:44 19.4
2020-Aug-08 21:26 20.0
2020-Aug-08 21:02 203 20.6
2020-Aug-08 20:53 203 20.6
2020-Aug-08 20:44 203 20.6
2020-Aug-08 20:35 203 21.1
2020-Aug-08 20:26 203 21.1
2020-Aug-08 20:01 203 0 gusting 1 21.7
2020-Aug-08 19:52 21.7
2020-Aug-08 19:43 203 21.7
2020-Aug-08 19:34 203 22.2
2020-Aug-08 19:25 203 22.2
2020-Aug-08 19:01 203 23.3
2020-Aug-08 18:52 23.3
2020-Aug-08 18:43 23.9
2020-Aug-08 18:34 203 23.9
2020-Aug-08 18:25 203 24.4
2020-Aug-08 18:16 203 25.0
2020-Aug-08 18:01 203 25.6
2020-Aug-08 17:34 203 26.1
2020-Aug-08 17:25 203 26.7
2020-Aug-08 16:52 203 0 gusting 2 27.2
2020-Aug-08 16:43 234 27.2
2020-Aug-08 16:34 220 27.2
2020-Aug-08 16:25 224 26.7
2020-Aug-08 16:17 243 26.7
2020-Aug-08 15:34 227 26.7
2020-Aug-08 15:16 219 26.7
2020-Aug-08 15:01 226 26.7
2020-Aug-08 14:52 247 26.7
2020-Aug-08 14:34 216 2 gusting 6 26.7
2020-Aug-08 14:01 217 2 gusting 7 26.7
2020-Aug-08 13:52 220 26.7
2020-Aug-08 13:01 229 3 gusting 7 26.1
2020-Aug-08 12:52 223 26.1
2020-Aug-08 12:34 221 2 gusting 6 26.1
2020-Aug-08 12:25 218 26.1
2020-Aug-08 11:34 230 25.0
2020-Aug-08 11:25 227 2 gusting 2 25.0
2020-Aug-08 11:16 218 24.4
2020-Aug-08 10:52 218 1 gusting 6 24.4
2020-Aug-08 09:52 215 23.9
2020-Aug-08 09:43 219 1 gusting 4 23.9
2020-Aug-08 09:34 223 23.9
2020-Aug-08 09:25 222 2 gusting 5 23.3
2020-Aug-08 09:16 213 0 gusting 5 23.3
2020-Aug-08 09:01 203 0 gusting 3 23.3
2020-Aug-08 08:43 215 22.2
2020-Aug-08 08:34 218 1 gusting 5 22.2
2020-Aug-08 08:16 228 21.7
2020-Aug-08 08:00 218 3 gusting 4 21.7
2020-Aug-08 07:24 206 20.0
2020-Aug-08 07:00 20.0
2020-Aug-08 06:51 20.0
2020-Aug-08 06:42 19.4
2020-Aug-08 06:35 19.4
2020-Aug-08 06:15 19.4
2020-Aug-08 06:00 18.9
2020-Aug-08 05:42 18.3
2020-Aug-08 05:33 18.3
2020-Aug-08 05:24 225 18.3
2020-Aug-08 05:15 18.3
2020-Aug-08 05:00 17.8
2020-Aug-08 04:33 16.7
2020-Aug-08 04:24 16.1
2020-Aug-08 04:15 16.1
2020-Aug-08 03:51 16.1
2020-Aug-08 03:24 16.1
2020-Aug-08 03:15 16.1
2020-Aug-08 02:51 16.1
2020-Aug-08 02:42 16.1
2020-Aug-08 02:33 16.1
2020-Aug-08 02:15 16.7
2020-Aug-08 01:51 16.7
2020-Aug-08 01:42 16.7
2020-Aug-08 01:24 16.7
2020-Aug-08 01:15 16.7
2020-Aug-08 01:00 16.7
2020-Aug-08 00:51 17.2
2020-Aug-08 00:42 17.2
2020-Aug-08 00:24 17.2
2020-Aug-08 00:15 17.2
2020-Aug-08 00:00 17.8
2020-Aug-07 23:51 17.8
2020-Aug-07 23:42 17.8
2020-Aug-07 23:33 17.8
2020-Aug-07 23:24 18.3
2020-Aug-07 22:51 18.3
2020-Aug-07 22:42 18.9
2020-Aug-07 22:33 18.9
2020-Aug-07 22:24 18.9
2020-Aug-07 21:51 19.4
2020-Aug-07 21:33 20.0
2020-Aug-07 21:00 225 20.6
2020-Aug-07 20:51 225 20.6
2020-Aug-07 20:24 225 21.1
2020-Aug-07 19:59 21.7
2020-Aug-07 19:14 22.8
2020-Aug-07 18:59 225 22.8
2020-Aug-07 18:41 225 23.3
2020-Aug-07 18:14 24.4
2020-Aug-07 17:59 25.0
2020-Aug-07 17:32 225 25.6